Location: Oulou
(10.7667°N, 12.5167°W)
Time: 08:23:49
(UTC+00:00)

ADEOS Rocket - Pass Details

Date: 20 September 2019
Orbit: 859 x 1306 km, 98.7° (Epoch: 14 October)

Event Time Altitude Azimuth Distance (km) Brightness Sun altitude
Rises 20:32:51 0° 11° (NNE) 4,236 6.3 -26.6°
Reaches altitude 10° 20:35:31 10° 11° (NNE) 3,292 5.7 -27.3°
Maximum altitude 20:43:16 86° 284° (WNW) 1,309 3.5 -29.2°
Drops below altitude 10° 20:50:57 10° 195° (SSW) 3,266 5.8 -31.0°
Sets 20:53:34 0° 194° (SSW) 4,200 6.4 -31.7°
